Location: Mariposa
(37.4849°N, 119.9663°W)
Time: 09:53:57
(UTC+00:00)

Cosmos 2278 Rocket - Pass Details

Date: 03 August 2024
Orbit: 841 x 844 km, 71.0° (Epoch: 10 September)

Event Time Altitude Azimuth Distance (km) Brightness Sun altitude
Rises 12:07:10 0° 340° (NNW) 3,403 5.5 -11.2°
Reaches altitude 10° 12:09:39 10° 343° (NNW) 2,465 4.8 -10.8°
Maximum altitude 12:15:17 68° 66° (ENE) 908 2.6 -9.9°
Drops below altitude 10° 12:20:53 10° 149° (SSE) 2,453 4.6 -8.9°
Sets 12:23:20 0° 152° (SSE) 3,384 5.3 -8.5°
